Location: Unspecified
(0.0000°N, 0.0000°E)
Time: 15:09:47
(UTC+00:00)

Explorer 11/Cluster Stage 4 - Pass Details

Date: 27 February 2024
Orbit: 465 x 1219 km, 28.8° (Epoch: 24 April)

Event Time Altitude Azimuth Distance (km) Brightness Sun altitude
Rises 20:32:30 0° 250° (WSW) 3,464 10.9 -34.5°
Reaches altitude 10° 20:34:57 10° 254° (WSW) 2,635 10.0 -35.1°
Enters shadow 20:40:02 49° 294° (WNW) 1,316 7.8 -36.4°
